Flag for U.S.A. Weather past 2 weeks in Hollywood, Florida, U.S.A.

Now
80 °F

Scattered clouds.


Feels Like: 84 °F
Forecast: 69 / 85 °F
Wind: 13 mph from Southeast

Location: Fort Lauderdale / Hollywood International Airport


UV Index: 7 (High)

Visibility: 10 mi


Pressure: 29.95 "Hg

Humidity: 74%

Dew point: 71 °F

Location of HollywoodLocation

Historic Weather in Hollywood

°F

Hollywood temperature yesterday

Maximum temperature yesterday: 81 °F (at 10:53 AM)
Minimum temperature yesterday: 74 °F (at 12:00 AM)
Average temperature yesterday: 77 °F

Past Weeks' High & Low Weather Summary

 TemperatureHumidityPressure
High91 °F (Apr 8, 2:53 PM)100% (Apr 8, 4:53 AM)30.25 "Hg (Apr 8, 4:53 AM)
Low68 °F (Apr 9, 6:53 AM)42% (Apr 9, 3:53 PM)29.76 "Hg (Apr 8, 4:53 PM)
Average78 °F75%30.02 "Hg
* Reported Apr 3 7:53 PM — Apr 18 7:53 PM, Hollywood, Weather by CustomWeather, © 2014

Note: Actual official high and low records may vary slightly from our data, if they occured in-between our weather recording intervals... More about our weather records

Advertising

Historic Weather Conditions — Data for Previous 24 hours

 ConditionsComfort  
Time TempWeatherWind HumidityBarometerVisibility
7:53 PM
Apr 18
80 °FScattered clouds.13 mph74%29.95 "Hg10 mi
6:53 PM81 °FPartly sunny.15 mph69%29.95 "Hg10 mi
5:53 PM82 °FBroken clouds.17 mph70%29.96 "Hg10 mi
4:53 PM83 °FBroken clouds.12 mph68%29.98 "Hg10 mi
3:53 PM84 °FBroken clouds.16 mph63%29.99 "Hg10 mi
2:53 PM84 °FBroken clouds.21 mph63%30.01 "Hg10 mi
1:53 PM84 °FBroken clouds.20 mph63%30.02 "Hg10 mi
12:53 PM84 °FBroken clouds.20 mph63%30.04 "Hg10 mi
11:53 AM82 °FPartly sunny.17 mph67%30.05 "Hg10 mi
10:53 AM81 °FPartly sunny.21 mph65%30.05 "Hg10 mi
9:53 AM80 °FPartly sunny.18 mph69%30.05 "Hg10 mi
8:53 AM79 °FPartly sunny.14 mph72%30.06 "Hg10 mi
7:53 AM77 °FPassing clouds.14 mph74%30.05 "Hg10 mi
6:53 AM77 °FPassing clouds.15 mph85%30.01 "Hg10 mi
5:53 AM74 °FLight rain. Partly cloudy.13 mph91%30.00 "Hg9 mi
4:53 AM76 °FPassing clouds.10 mph88%30.02 "Hg10 mi
3:53 AM77 °FPassing clouds.9 mph82%30.03 "Hg10 mi
2:53 AM75 °FPassing clouds.5 mph94%30.03 "Hg10 mi
1:53 AM75 °FPassing clouds.8 mph94%30.05 "Hg10 mi
12:53 AM75 °FPassing clouds.10 mph96%30.07 "Hg10 mi
11:53 PM
Apr 17
78 °FPassing clouds.10 mph84%30.09 "Hg10 mi
10:53 PM77 °FPassing clouds.10 mph88%30.09 "Hg10 mi
9:53 PM78 °FPassing clouds.14 mph82%30.09 "Hg10 mi
Weather by CustomWeather, © 2014

See weather overview